Regional Weather Roundup
Issued by NWS New Orleans/Baton Rouge, LA

Home | Current Version | Previous Version | Text Only | Print | Product List | Glossary On
Versions: 1 2 3 4 5 6 7 8 9 10 11 12 13 14 15 16 17 18 19 20 21 22 23 24 25 26 27 28 29 30 31 32 33 34 35 36 37 38 39 40 41 42 43 44 45 46 47 48 49 50
608
ASUS44 KLIX 270205
RWRLIX
NEW ORLEANS REGIONAL WEATHER ROUNDUP
NATIONAL WEATHER SERVICE NEW ORLEANS LA
900 PM CDT TUE AUG 26 2014

NOTE: "FAIR" INDICATES FEW OR NO CLOUDS BELOW 12,000 FEET WITH NO
      SIGNIFICANT WEATHER AND/OR OBSTRUCTIONS TO VISIBILITY.
      SKY/WX - SKY CONDITION AND SIGNIFICANT WEATHER.
      TMP - AIR TEMPERATURE.     DP    - DEWPOINT TEMPERATURE.
      RH  - RELATIVE HUMIDITY.   PRES  - PRESSURE.
      HI  - HEAT INDEX.          WCI   - WIND CHILL INDEX.

*  THESE STATIONS ARE NOT NWS OR FAA STATIONS AND ARE NOT UNDER
   NWS QUALITY CONTROL.

LAZ038-040-048-061>063-065>067-069-270300-
SOUTHEAST LOUISIANA

CITY           SKY/WX    TMP DP  RH WIND       PRES   REMARKS
N.O. AUDUBON     N/A     84  73  67 MISG        N/A
N.O. INTL ARPT MOCLDY    83  71  67 E7        29.96S
N.O. LAKEFRONT CLOUDY    83  73  72 E10       29.97S
N.O. DOWNTOWN*   N/A     82  70  65 CALM      29.97S
SLIDELL        CLOUDY    78  74  87 E3        29.97R
BATON ROUGE    MOCLDY    80  74  81 CALM      29.97R
BOOTHVILLE     MOCLDY    83  76  79 E10       29.96R
BELLE CHASSE   CLOUDY    81  71  71 E6        29.96R
BOGALUSA*        N/A     79  69  70 CALM      30.00R
GALLIANO*      NOT AVBL
NEW ROADS*       N/A     78  72  82 CALM      29.98R
GONZALES*        N/A     78  78 100 CALM      29.96R
HAMMOND*       PTCLDY    79  72  78 CALM      29.99R
HOUMA*         CLOUDY    78  71  78 NE3       29.96R
PORT FOURCHON* CLEAR     82  73  74 E12       29.96S

$$

MSZ070-080>082-270300-
SOUTHERN MISSISSIPPI

CITY           SKY/WX    TMP DP  RH WIND       PRES   REMARKS
MCCOMB         MOCLDY    80  67  64 N5        30.00R
GULFPORT       MOCLDY    83  73  72 SE9       29.97R
BILOXI         MOCLDY    84  72  67 SE6       29.98R
PASCAGOULA     MOCLDY    77  73  87 CALM      29.98R
STENNIS ARPT*  CLEAR    N/A N/A N/A CALM      29.98R

$$

COASTAL OBSERVATIONS
LAKE AND NEARSHORE STATIONS

STATION/POSITION TIME  TEMP    WIND        PRES    WAVE
                       AIR SEA DIR/SP/G            HT/PER
                 (UTC) (F)     (DEG/KT/KT) (MB)    (FT/S)
PASCAGOULA       0200   84     140/  7/  9 1014.7
WAVELAND YACHT   0200   84     130/ 10/ 12 1014.4
GRAND ISLE       0200   83 85   90/ 10/ 13 1014.8
SOUTHWEST PASS   0200   83 88   70/ 16/ 20 1014.4
NEW CANAL        0200   83 85  100/  1/  2 1015.0
SHELL BEACH      0200   83 82  100/ 10/ 12 1014.5

OFFSHORE STATIONS

STATION/POSITION TIME  TEMP    WIND        PRES    WAVE
                       AIR SEA DIR/SP/G            HT/PER
                 (UTC) (F)     (DEG/KT/KT) (MB)    (FT/S)
64 S DAUPHIN ISL 0107   85 86   80/ 16/ 19 1014.8

$$




USA.gov is the U.S. government's official web portal to all federal, state and local government web resources and services.